Location: Albany
(35.0170°S, 117.8920°E)
Time: 23:39:36
(UTC+08:00)

S-56A Canister/Altair - Pass Details

Date: 23 June 2021
Orbit: 632 x 2501 km, 38.9° (Epoch: 24 July)

Event Time Altitude Azimuth Distance (km) Brightness Sun altitude
Rises 21:54:18 0° 248° (WSW) 6,067 12.6 -58.2°
Reaches altitude 10° 21:58:55 10° 255° (WSW) 4,895 11.9 -59.2°
Enters shadow 22:05:40 28° 276° (W) 3,326 10.8 -60.5°
